QFA185 YSSY-YMML

Flight info

Callsign QFA185
Flight time 1h 7m
Altitude 38000
Route MARUB7/34R WOL DCT CB DCT BOYSE
Aircraft A20N/M-SDE2E3FGHIRWXY/LB1

Departure

Time 2026-04-26 09:45
Airport Sydney Kingsford Smith International Airport (YSSY)

Arrival

Time 2026-04-26 10:53
Airport Melbourne Airport (YMML)
Time Latitude Longitude Altitude Speed Heading
2026-04-26 09:06 -33.93157 151.17630 30 ft 0 kts 111°
2026-04-26 09:23 -33.93155 151.17625 30 ft 2 kts 111°
2026-04-26 09:23 -33.93150 151.17607 30 ft 2 kts 110°
2026-04-26 09:23 -33.93144 151.17588 30 ft 2 kts 109°
2026-04-26 09:23 -33.93139 151.17569 30 ft 2 kts 107°
2026-04-26 09:24 -33.93134 151.17550 30 ft 2 kts 106°
2026-04-26 09:24 -33.93129 151.17531 30 ft 2 kts 120°
2026-04-26 09:24 -33.93126 151.17525 30 ft 0 kts 161°
2026-04-26 09:25 -33.93129 151.17526 30 ft 0 kts 161°
2026-04-26 09:28 -33.93130 151.17526 30 ft 1 kts 161°
2026-04-26 09:28 -33.93180 151.17542 30 ft 15 kts 165°
2026-04-26 09:29 -33.93333 151.17581 30 ft 29 kts 168°
2026-04-26 09:29 -33.93545 151.17602 27 ft 33 kts 167°
2026-04-26 09:29 -33.93763 151.17693 20 ft 36 kts 168°
2026-04-26 09:29 -33.93982 151.17795 22 ft 32 kts 170°
2026-04-26 09:30 -33.94199 151.17860 28 ft 32 kts 167°
2026-04-26 09:30 -33.94426 151.17902 28 ft 33 kts 188°
2026-04-26 09:30 -33.94626 151.17914 24 ft 7 kts 167°
2026-04-26 09:30 -33.94665 151.17924 23 ft 16 kts 169°
2026-04-26 09:31 -33.94815 151.17962 20 ft 28 kts 168°
2026-04-26 09:31 -33.95028 151.18018 28 ft 33 kts 159°
2026-04-26 09:31 -33.95077 151.18217 26 ft 27 kts 75°
2026-04-26 09:31 -33.95043 151.18427 27 ft 11 kts 78°
2026-04-26 09:32 -33.95042 151.18433 26 ft 0 kts 78°
2026-04-26 09:32 -33.95042 151.18434 26 ft 1 kts 79°
2026-04-26 09:32 -33.95049 151.18479 26 ft 9 kts 127°
2026-04-26 09:32 -33.95127 151.18568 29 ft 21 kts 134°
2026-04-26 09:33 -33.95274 151.18699 28 ft 31 kts 155°
2026-04-26 09:33 -33.95510 151.18774 25 ft 38 kts 169°
2026-04-26 09:33 -33.95769 151.18843 26 ft 38 kts 168°
2026-04-26 09:33 -33.96027 151.18904 30 ft 39 kts 169°
2026-04-26 09:34 -33.96299 151.18975 29 ft 40 kts 168°
2026-04-26 09:34 -33.96577 151.19045 19 ft 42 kts 168°
2026-04-26 09:34 -33.96801 151.19072 20 ft 26 kts 175°
2026-04-26 09:34 -33.96989 151.19102 20 ft 28 kts 166°
2026-04-26 09:35 -33.97072 151.19217 20 ft 0 kts 68°
2026-04-26 09:36 -33.97061 151.19212 20 ft 0 kts 68°
2026-04-26 09:36 -33.97062 151.19212 20 ft 0 kts 76°
2026-04-26 09:44 -33.97054 151.19254 20 ft 12 kts 78°
2026-04-26 09:45 -33.96994 151.19349 20 ft 14 kts 357°
2026-04-26 09:45 -33.96779 151.19301 18 ft 71 kts 348°
2026-04-26 09:45 -33.96020 151.19107 35 ft 147 kts 348°
2026-04-26 09:45 -33.94971 151.19051 711 ft 156 kts 19°
2026-04-26 09:46 -33.94124 151.19855 1657 ft 160 kts 54°
2026-04-26 09:46 -33.93692 151.21130 2390 ft 177 kts 78°
2026-04-26 09:46 -33.93654 151.22704 2974 ft 200 kts 90°
2026-04-26 09:46 -33.93738 151.24488 3496 ft 227 kts 90°
2026-04-26 09:47 -33.93790 151.26478 4120 ft 249 kts 89°
2026-04-26 09:47 -33.93780 151.28651 4800 ft 268 kts 88°
2026-04-26 09:47 -33.93725 151.30919 5790 ft 272 kts 88°
2026-04-26 09:47 -33.93652 151.33203 6855 ft 275 kts 88°
2026-04-26 09:48 -33.93573 151.35515 7848 ft 278 kts 88°
2026-04-26 09:48 -33.93494 151.37855 8854 ft 281 kts 88°
2026-04-26 09:48 -33.93415 151.40229 9854 ft 285 kts 87°
2026-04-26 09:48 -33.93336 151.42638 10659 ft 296 kts 87°
2026-04-26 09:49 -33.93252 151.45219 11030 ft 321 kts 87°
2026-04-26 09:49 -33.93163 151.47990 11470 ft 339 kts 87°
2026-04-26 09:49 -33.93272 151.50834 12331 ft 343 kts 103°
2026-04-26 09:49 -33.94240 151.53455 13252 ft 347 kts 125°
2026-04-26 09:50 -33.95988 151.55476 14073 ft 354 kts 147°
2026-04-26 09:50 -33.98255 151.56687 14829 ft 359 kts 161°
2026-04-26 09:50 -34.00658 151.57557 15617 ft 363 kts 162°
2026-04-26 09:50 -34.03081 151.58477 16380 ft 367 kts 160°
2026-04-26 09:51 -34.05490 151.59528 17128 ft 370 kts 157°
2026-04-26 09:51 -34.07890 151.60684 17889 ft 374 kts 156°
2026-04-26 09:51 -34.10302 151.61909 18595 ft 378 kts 155°
2026-04-26 09:51 -34.12733 151.63164 19275 ft 380 kts 155°
2026-04-26 09:52 -34.15174 151.64435 19908 ft 385 kts 155°
2026-04-26 09:52 -34.20106 151.66978 21176 ft 392 kts 159°
2026-04-26 09:52 -34.22777 151.67706 21765 ft 398 kts 174°
2026-04-26 09:53 -34.25557 151.67503 22376 ft 404 kts 191°
2026-04-26 09:53 -34.28259 151.66348 22955 ft 411 kts 207°
2026-04-26 09:53 -34.30568 151.64384 23598 ft 415 kts 222°
2026-04-26 09:53 -34.32433 151.61694 24090 ft 421 kts 238°
2026-04-26 09:54 -34.33687 151.58488 24610 ft 424 kts 250°
2026-04-26 09:54 -34.34566 151.55020 25107 ft 427 kts 254°
2026-04-26 09:54 -34.35363 151.51602 25681 ft 428 kts 253°
2026-04-26 09:54 -34.36237 151.48089 26105 ft 432 kts 252°
2026-04-26 09:55 -34.37166 151.44621 26630 ft 434 kts 251°
2026-04-26 09:55 -34.38138 151.41145 27048 ft 438 kts 250°
2026-04-26 09:55 -34.39135 151.37657 27555 ft 439 kts 250°
2026-04-26 09:55 -34.40142 151.34156 28012 ft 442 kts 250°
2026-04-26 09:56 -34.41154 151.30638 28486 ft 443 kts 250°
2026-04-26 09:56 -34.42168 151.27102 28866 ft 447 kts 250°
2026-04-26 09:56 -34.43175 151.23587 29273 ft 448 kts 250°
2026-04-26 09:56 -34.44195 151.20015 29674 ft 451 kts 250°
2026-04-26 09:57 -34.45224 151.16411 30056 ft 453 kts 250°
2026-04-26 09:57 -34.46252 151.12805 30430 ft 455 kts 250°
2026-04-26 09:57 -34.47291 151.09154 30771 ft 457 kts 250°
2026-04-26 09:57 -34.48327 151.05508 31130 ft 459 kts 250°
2026-04-26 09:58 -34.49366 151.01849 31535 ft 459 kts 250°
2026-04-26 09:58 -34.50402 150.98196 32020 ft 457 kts 250°
2026-04-26 09:58 -34.51429 150.94566 32505 ft 455 kts 250°
2026-04-26 09:58 -34.52454 150.90945 32954 ft 453 kts 250°
2026-04-26 09:59 -34.53472 150.87339 33437 ft 451 kts 250°
2026-04-26 09:59 -34.54487 150.83748 33831 ft 450 kts 249°
2026-04-26 09:59 -34.55685 150.80254 34296 ft 447 kts 243°
2026-04-26 09:59 -34.57180 150.76960 34607 ft 446 kts 237°
2026-04-26 10:00 -34.58945 150.73882 34971 ft 443 kts 233°
2026-04-26 10:00 -34.60777 150.70871 35298 ft 442 kts 233°
2026-04-26 10:00 -34.62592 150.67863 35565 ft 443 kts 233°
2026-04-26 10:00 -34.64409 150.64841 35881 ft 442 kts 234°
2026-04-26 10:01 -34.66222 150.61826 36132 ft 442 kts 234°
2026-04-26 10:01 -34.68032 150.58813 36448 ft 441 kts 234°
2026-04-26 10:01 -34.69843 150.55800 36729 ft 441 kts 234°
2026-04-26 10:01 -34.71644 150.52791 36964 ft 441 kts 234°
2026-04-26 10:02 -34.73445 150.49780 37260 ft 440 kts 234°
2026-04-26 10:02 -34.75248 150.46769 37497 ft 440 kts 234°
2026-04-26 10:02 -34.77047 150.43764 37743 ft 440 kts 234°
2026-04-26 10:02 -34.78847 150.40755 37960 ft 440 kts 234°
2026-04-26 10:03 -34.80648 150.37744 38170 ft 440 kts 234°
2026-04-26 10:03 -34.82446 150.34733 38256 ft 440 kts 234°
2026-04-26 10:03 -34.86032 150.28721 38270 ft 438 kts 234°
2026-04-26 10:04 -34.89612 150.22709 38267 ft 439 kts 234°
2026-04-26 10:04 -34.93189 150.16693 38266 ft 438 kts 234°
2026-04-26 10:05 -34.96765 150.10667 38267 ft 438 kts 234°
2026-04-26 10:05 -35.00336 150.04639 38273 ft 438 kts 234°
2026-04-26 10:06 -35.03905 149.98606 38269 ft 438 kts 235°
2026-04-26 10:06 -35.07469 149.92569 38276 ft 438 kts 235°
2026-04-26 10:07 -35.11026 149.86531 38273 ft 438 kts 235°
2026-04-26 10:07 -35.14580 149.80494 38278 ft 438 kts 235°
2026-04-26 10:08 -35.18134 149.74443 38277 ft 438 kts 235°
2026-04-26 10:08 -35.21678 149.68399 38278 ft 438 kts 235°
2026-04-26 10:09 -35.25199 149.62384 38273 ft 438 kts 235°
2026-04-26 10:09 -35.28783 149.56250 38272 ft 448 kts 235°
2026-04-26 10:10 -35.32435 149.49988 38276 ft 456 kts 235°
2026-04-26 10:10 -35.36141 149.43624 38273 ft 461 kts 235°
2026-04-26 10:11 -35.39875 149.37199 38271 ft 464 kts 235°
2026-04-26 10:11 -35.43625 149.30734 38272 ft 466 kts 235°
2026-04-26 10:12 -35.47384 149.24242 38268 ft 467 kts 236°
2026-04-26 10:12 -35.51145 149.17735 38274 ft 468 kts 236°
2026-04-26 10:13 -35.54908 149.11211 38288 ft 468 kts 236°
2026-04-26 10:13 -35.58671 149.04676 38299 ft 468 kts 236°
2026-04-26 10:14 -35.62428 148.98139 38311 ft 468 kts 236°
2026-04-26 10:14 -35.66179 148.91601 38326 ft 468 kts 236°
2026-04-26 10:15 -35.69932 148.85055 38328 ft 468 kts 236°
2026-04-26 10:15 -35.73645 148.78551 38341 ft 448 kts 236°
2026-04-26 10:16 -35.75397 148.75482 38329 ft 430 kts 236°
2026-04-26 10:16 -35.77085 148.72522 38338 ft 418 kts 236°
2026-04-26 10:16 -35.80458 148.66590 38340 ft 428 kts 236°
2026-04-26 10:17 -35.83914 148.60509 38344 ft 438 kts 236°
2026-04-26 10:17 -35.87442 148.54293 38340 ft 447 kts 236°
2026-04-26 10:18 -35.91018 148.47968 38342 ft 452 kts 236°
2026-04-26 10:18 -35.94619 148.41567 38340 ft 456 kts 236°
2026-04-26 10:19 -35.98228 148.35145 38323 ft 447 kts 236°
2026-04-26 10:19 -35.99965 148.32053 38326 ft 431 kts 236°
2026-04-26 10:19 -36.01650 148.29051 38326 ft 422 kts 237°
2026-04-26 10:20 -36.04450 148.24049 38326 ft 430 kts 237°
2026-04-26 10:20 -36.08437 148.16916 38314 ft 432 kts 236°
2026-04-26 10:21 -36.11853 148.10796 38315 ft 432 kts 236°
2026-04-26 10:21 -36.15271 148.04682 38310 ft 432 kts 236°
2026-04-26 10:22 -36.18691 147.98566 38309 ft 432 kts 236°
2026-04-26 10:22 -36.22107 147.92441 38299 ft 432 kts 236°
2026-04-26 10:23 -36.25517 147.86314 38307 ft 432 kts 236°
2026-04-26 10:23 -36.28904 147.80219 38300 ft 432 kts 236°
2026-04-26 10:24 -36.32305 147.74087 38300 ft 432 kts 236°
2026-04-26 10:24 -36.35699 147.67946 38294 ft 432 kts 237°
2026-04-26 10:25 -36.39086 147.61801 38308 ft 431 kts 236°
2026-04-26 10:25 -36.42468 147.55653 38304 ft 431 kts 236°
2026-04-26 10:26 -36.45844 147.49508 38306 ft 430 kts 236°
2026-04-26 10:26 -36.49214 147.43363 38298 ft 430 kts 237°
2026-04-26 10:27 -36.52574 147.37223 38289 ft 429 kts 236°
2026-04-26 10:27 -36.55921 147.31098 38261 ft 426 kts 236°
2026-04-26 10:28 -36.57585 147.28046 38014 ft 426 kts 236°
2026-04-26 10:28 -36.59249 147.24992 37738 ft 426 kts 237°
2026-04-26 10:28 -36.60912 147.21938 37471 ft 427 kts 237°
2026-04-26 10:28 -36.62017 147.19907 37293 ft 428 kts 237°
2026-04-26 10:29 -36.63682 147.16844 37028 ft 428 kts 237°
2026-04-26 10:29 -36.65354 147.13767 36772 ft 429 kts 237°
2026-04-26 10:29 -36.67589 147.09649 36431 ft 430 kts 237°
2026-04-26 10:29 -36.68699 147.07601 36258 ft 431 kts 237°
2026-04-26 10:30 -36.70378 147.04504 36003 ft 432 kts 237°
2026-04-26 10:30 -36.72059 147.01399 35754 ft 433 kts 237°
2026-04-26 10:30 -36.73745 146.98283 35508 ft 434 kts 237°
2026-04-26 10:30 -36.75430 146.95165 35269 ft 435 kts 237°
2026-04-26 10:31 -36.77124 146.92028 35020 ft 436 kts 238°
2026-04-26 10:31 -36.78817 146.88888 34780 ft 437 kts 238°
2026-04-26 10:31 -36.80516 146.85736 34550 ft 438 kts 238°
2026-04-26 10:31 -36.82218 146.82576 34310 ft 441 kts 238°
2026-04-26 10:32 -36.83937 146.79381 34040 ft 445 kts 238°
2026-04-26 10:32 -36.85660 146.76174 33774 ft 444 kts 238°
2026-04-26 10:32 -36.87380 146.72971 33504 ft 444 kts 238°
2026-04-26 10:32 -36.89101 146.69762 33245 ft 445 kts 238°
2026-04-26 10:33 -36.90824 146.66547 32990 ft 446 kts 238°
2026-04-26 10:33 -36.92545 146.63331 32730 ft 446 kts 238°
2026-04-26 10:33 -36.94268 146.60109 32469 ft 446 kts 238°
2026-04-26 10:33 -36.95995 146.56877 32220 ft 447 kts 238°
2026-04-26 10:34 -36.97723 146.53640 31912 ft 448 kts 238°
2026-04-26 10:34 -36.99457 146.50387 31220 ft 451 kts 238°
2026-04-26 10:34 -37.01196 146.47122 30579 ft 449 kts 238°
2026-04-26 10:34 -37.02920 146.43883 29903 ft 446 kts 238°
2026-04-26 10:35 -37.04627 146.40676 29294 ft 440 kts 238°
2026-04-26 10:35 -37.06311 146.37505 28689 ft 435 kts 238°
2026-04-26 10:35 -37.07976 146.34369 28071 ft 430 kts 238°
2026-04-26 10:35 -37.09624 146.31262 27473 ft 425 kts 238°
2026-04-26 10:36 -37.11250 146.28192 26872 ft 421 kts 238°
2026-04-26 10:36 -37.12863 146.25144 26276 ft 418 kts 239°
2026-04-26 10:36 -37.14461 146.22122 25691 ft 414 kts 239°
2026-04-26 10:36 -37.16048 146.19118 25091 ft 412 kts 239°
2026-04-26 10:37 -37.17624 146.16131 24485 ft 409 kts 239°
2026-04-26 10:37 -37.19189 146.13162 23897 ft 407 kts 239°
2026-04-26 10:37 -37.20744 146.10210 23250 ft 404 kts 239°
2026-04-26 10:37 -37.22282 146.07292 22688 ft 398 kts 240°
2026-04-26 10:38 -37.23797 146.04411 22112 ft 393 kts 240°
2026-04-26 10:38 -37.25298 146.01555 21536 ft 390 kts 240°
2026-04-26 10:38 -37.26782 145.98729 20961 ft 386 kts 240°
2026-04-26 10:38 -37.28252 145.95925 20390 ft 383 kts 240°
2026-04-26 10:39 -37.29711 145.93143 19836 ft 381 kts 241°
2026-04-26 10:39 -37.31163 145.90372 19241 ft 379 kts 241°
2026-04-26 10:39 -37.32610 145.87620 18697 ft 378 kts 242°
2026-04-26 10:39 -37.34061 145.84859 18078 ft 376 kts 242°
2026-04-26 10:40 -37.35495 145.82126 17532 ft 372 kts 241°
2026-04-26 10:40 -37.36894 145.79458 16987 ft 369 kts 241°
2026-04-26 10:40 -37.38318 145.76739 16414 ft 366 kts 241°
2026-04-26 10:40 -37.39714 145.74072 15865 ft 363 kts 241°
2026-04-26 10:41 -37.41097 145.71425 15322 ft 361 kts 241°
2026-04-26 10:41 -37.42450 145.68833 14790 ft 358 kts 241°
2026-04-26 10:41 -37.43540 145.66732 14359 ft 355 kts 243°
2026-04-26 10:41 -37.44532 145.64086 13837 ft 346 kts 256°
2026-04-26 10:42 -37.45009 145.61066 13291 ft 337 kts 269°
2026-04-26 10:42 -37.45006 145.58153 12798 ft 331 kts 274°
2026-04-26 10:42 -37.44966 145.55277 12303 ft 327 kts 273°
2026-04-26 10:42 -37.44934 145.52463 11823 ft 324 kts 273°
2026-04-26 10:43 -37.44904 145.49641 11337 ft 321 kts 272°
2026-04-26 10:43 -37.44874 145.46842 10806 ft 320 kts 272°
2026-04-26 10:43 -37.44841 145.44006 10118 ft 325 kts 272°
2026-04-26 10:43 -37.44808 145.41225 9949 ft 311 kts 272°
2026-04-26 10:44 -37.44778 145.38562 9814 ft 297 kts 272°
2026-04-26 10:44 -37.44748 145.36016 9651 ft 285 kts 272°
2026-04-26 10:44 -37.44718 145.33543 9337 ft 279 kts 272°
2026-04-26 10:44 -37.44688 145.31140 9161 ft 273 kts 272°
2026-04-26 10:45 -37.44658 145.28740 8909 ft 275 kts 271°
2026-04-26 10:45 -37.44633 145.26317 8498 ft 278 kts 272°
2026-04-26 10:45 -37.44605 145.23890 8135 ft 276 kts 271°
2026-04-26 10:45 -37.44573 145.21483 7734 ft 274 kts 272°
2026-04-26 10:46 -37.44540 145.19091 7371 ft 272 kts 271°
2026-04-26 10:46 -37.44504 145.16721 7026 ft 269 kts 272°
2026-04-26 10:46 -37.44465 145.14377 6700 ft 266 kts 272°
2026-04-26 10:46 -37.44418 145.12060 6342 ft 264 kts 272°
2026-04-26 10:47 -37.44374 145.09752 5985 ft 265 kts 272°
2026-04-26 10:47 -37.44345 145.07436 5637 ft 264 kts 268°
2026-04-26 10:47 -37.44768 145.05202 5292 ft 263 kts 252°
2026-04-26 10:47 -37.45393 145.03022 4951 ft 266 kts 252°
2026-04-26 10:48 -37.46026 145.00842 4596 ft 264 kts 252°
2026-04-26 10:48 -37.46662 144.98672 4250 ft 267 kts 252°
2026-04-26 10:48 -37.47312 144.96464 3899 ft 268 kts 252°
2026-04-26 10:48 -37.47960 144.94277 3560 ft 266 kts 251°
2026-04-26 10:49 -37.48607 144.92094 3214 ft 266 kts 252°
2026-04-26 10:49 -37.49248 144.89918 3026 ft 264 kts 251°
2026-04-26 10:49 -37.49883 144.87739 2993 ft 265 kts 252°
2026-04-26 10:49 -37.50521 144.85552 2994 ft 266 kts 252°
2026-04-26 10:50 -37.51179 144.83374 2992 ft 267 kts 245°
2026-04-26 10:50 -37.51888 144.82076 2996 ft 269 kts 227°
2026-04-26 10:50 -37.54061 144.80633 2994 ft 273 kts 189°
2026-04-26 10:50 -37.55943 144.80715 2990 ft 272 kts 170°
2026-04-26 10:51 -37.57739 144.81329 2591 ft 258 kts 161°
2026-04-26 10:51 -37.60574 144.82622 2022 ft 189 kts 171°
2026-04-26 10:51 -37.61853 144.82983 1704 ft 187 kts 171°
2026-04-26 10:52 -37.63117 144.83211 1280 ft 178 kts 172°
2026-04-26 10:52 -37.64333 144.83394 849 ft 175 kts 173°
2026-04-26 10:52 -37.65557 144.83568 466 ft 176 kts 172°
2026-04-26 10:52 -37.66714 144.83726 391 ft 151 kts 173°
2026-04-26 10:53 -37.67567 144.83904 368 ft 95 kts 172°
2026-04-26 10:53 -37.68024 144.83987 349 ft 37 kts 166°
2026-04-26 10:53 -37.68106 144.84007 345 ft 0 kts 172°
2026-04-26 10:54 -37.68272 144.84038 351 ft 26 kts 172°
2026-04-26 10:54 -37.68476 144.84085 333 ft 32 kts 156°
2026-04-26 10:54 -37.68549 144.84214 331 ft 0 kts 69°
2026-04-26 10:55 -37.68549 144.84216 332 ft 2 kts 71°
2026-04-26 10:55 -37.68539 144.84258 332 ft 10 kts 73°
2026-04-26 10:55 -37.68510 144.84317 331 ft 15 kts 47°
2026-04-26 10:56 -37.68365 144.84442 334 ft 22 kts 27°
2026-04-26 10:56 -37.68202 144.84455 336 ft 26 kts 352°
2026-04-26 10:56 -37.68018 144.84421 347 ft 28 kts 351°
2026-04-26 10:56 -37.67818 144.84381 356 ft 30 kts 351°
2026-04-26 10:57 -37.67605 144.84344 360 ft 32 kts 352°
2026-04-26 10:57 -37.67384 144.84303 362 ft 33 kts 351°
2026-04-26 10:57 -37.67155 144.84258 370 ft 34 kts 351°
2026-04-26 10:57 -37.66920 144.84209 373 ft 35 kts 351°
2026-04-26 10:58 -37.66677 144.84160 376 ft 36 kts 354°
2026-04-26 10:58 -37.66515 144.84331 365 ft 35 kts 100°
2026-04-26 10:58 -37.66478 144.84669 337 ft 43 kts 80°
2026-04-26 10:58 -37.66624 144.84827 335 ft 12 kts 217°
2026-04-26 10:59 -37.66626 144.84823 334 ft 0 kts 230°
2026-04-26 10:59 -37.66628 144.84821 335 ft 1 kts 226°
2026-04-26 10:59 -37.66631 144.84815 338 ft 0 kts 241°
2026-04-26 11:00 -37.66640 144.84711 353 ft 14 kts 234°
2026-04-26 11:00 -37.66671 144.84700 346 ft 3 kts 140°
2026-04-26 11:00 -37.66706 144.84737 353 ft 11 kts 139°
2026-04-26 11:00 -37.66770 144.84891 343 ft 20 kts 63°
2026-04-26 11:01 -37.66763 144.84907 336 ft 0 kts 63°